• Em Portugal
  • Lista de países
  • Para 7 dias
  • Temperatura da água
  • Mapas de satélite
  • Mapa do tempo
  • Widgets de tempo
  • user-avatar
    Iniciar Sessão

    Previsão horária em Maan

    Hoje, 26 Setembro, Terça-feira

    Tempo Temperatura Precipitação Vento Pressão Humidade
    00:00 +19°C° 0 mm 2 m/s 638 mmHg 60%
    01:00 +18°C° 0 mm 2 m/s 638 mmHg 65%
    02:00 +18°C° 0 mm 2 m/s 637 mmHg 69%
    03:00 +17°C° 0 mm 2 m/s 637 mmHg 71%
    04:00 +17°C° 0 mm 2 m/s 637 mmHg 73%
    05:00 +16°C° 0 mm 1 m/s 637 mmHg 76%
    06:00 +17°C° 0 mm 2 m/s 637 mmHg 70%
    07:00 +18°C° 0 mm 2 m/s 638 mmHg 64%
    08:00 +19°C° 0 mm 2 m/s 638 mmHg 57%
    09:00 +21°C° 0 mm 2 m/s 639 mmHg 51%
    10:00 +23°C° 0 mm 2 m/s 639 mmHg 44%
    11:00 +25°C° 0 mm 2 m/s 640 mmHg 38%
    12:00 +26°C° 0 mm 3 m/s 640 mmHg 36%
    13:00 +26°C° 0 mm 3 m/s 640 mmHg 33%
    14:00 +27°C° 0 mm 4 m/s 640 mmHg 31%
    15:00 +26°C° 0 mm 4 m/s 639 mmHg 33%
    16:00 +25°C° 0 mm 5 m/s 639 mmHg 34%
    17:00 +25°C° 0 mm 5 m/s 639 mmHg 36%
    18:00 +22°C° 0 mm 5 m/s 639 mmHg 40%
    19:00 +21°C° 0 mm 5 m/s 639 mmHg 45%
    20:00 +20°C° 0 mm 4 m/s 639 mmHg 49%
    21:00 +19°C° 0 mm 4 m/s 639 mmHg 53%
    22:00 +18°C° 0 mm 3 m/s 639 mmHg 58%
    23:00 +18°C° 0 mm 3 m/s 639 mmHg 62%

    Amanhã, 27 Setembro, Quarta-feira

    Tempo Temperatura Precipitação Vento Pressão Humidade
    00:00 +17°C° 0 mm 2 m/s 639 mmHg 62%
    01:00 +17°C° 0 mm 2 m/s 638 mmHg 63%
    02:00 +16°C° 0 mm 2 m/s 638 mmHg 64%
    03:00 +16°C° 0 mm 2 m/s 638 mmHg 65%
    04:00 +15°C° 0 mm 1 m/s 638 mmHg 65%
    05:00 +15°C° 0 mm 1 m/s 638 mmHg 66%
    06:00 +16°C° 0 mm 1 m/s 639 mmHg 60%
    07:00 +17°C° 0 mm 2 m/s 639 mmHg 55%
    08:00 +18°C° 0 mm 2 m/s 640 mmHg 50%
    09:00 +19°C° 0 mm 2 m/s 640 mmHg 44%
    10:00 +21°C° 0 mm 2 m/s 640 mmHg 38%
    11:00 +24°C° 0 mm 2 m/s 641 mmHg 32%
    12:00 +24°C° 0 mm 2 m/s 641 mmHg 29%
    13:00 +25°C° 0 mm 3 m/s 640 mmHg 27%
    14:00 +26°C° 0 mm 3 m/s 640 mmHg 25%
    15:00 +26°C° 0 mm 3 m/s 640 mmHg 26%
    16:00 +25°C° 0 mm 4 m/s 640 mmHg 27%
    17:00 +25°C° 0 mm 4 m/s 639 mmHg 27%
    18:00 +22°C° 0 mm 4 m/s 639 mmHg 32%
    19:00 +21°C° 0 mm 4 m/s 639 mmHg 36%
    20:00 +20°C° 0 mm 4 m/s 639 mmHg 40%
    21:00 +19°C° 0 mm 3 m/s 639 mmHg 45%
    22:00 +18°C° 0 mm 3 m/s 639 mmHg 50%
    23:00 +18°C° 0 mm 2 m/s 639 mmHg 55%

    Depois de amanhã, 28 Setembro, Quinta-feira

    Tempo Temperatura Precipitação Vento Pressão Humidade
    00:00 +17°C° 0 mm 2 m/s 638 mmHg 58%
    01:00 +17°C° 0 mm 2 m/s 638 mmHg 62%
    02:00 +16°C° 0 mm 2 m/s 638 mmHg 65%
    03:00 +16°C° 0 mm 2 m/s 638 mmHg 67%
    04:00 +15°C° 0 mm 2 m/s 637 mmHg 69%
    05:00 +15°C° 0 mm 2 m/s 637 mmHg 71%
    06:00 +16°C° 0 mm 2 m/s 638 mmHg 65%
    07:00 +17°C° 0 mm 2 m/s 638 mmHg 60%
    08:00 +18°C° 0 mm 2 m/s 639 mmHg 54%
    09:00 +19°C° 0 mm 2 m/s 639 mmHg 48%
    10:00 +21°C° 0 mm 2 m/s 639 mmHg 42%
    11:00 +23°C° 0 mm 2 m/s 640 mmHg 35%
    12:00 +24°C° 0 mm 2 m/s 639 mmHg 33%
    13:00 +25°C° 0 mm 2 m/s 639 mmHg 30%
    14:00 +26°C° 0 mm 3 m/s 639 mmHg 27%
    15:00 +25°C° 0 mm 3 m/s 638 mmHg 28%
    16:00 +25°C° 0 mm 3 m/s 638 mmHg 29%
    17:00 +25°C° 0 mm 3 m/s 638 mmHg 30%
    18:00 +22°C° 0 mm 4 m/s 638 mmHg 36%
    19:00 +21°C° 0 mm 4 m/s 638 mmHg 42%
    20:00 +20°C° 0 mm 4 m/s 638 mmHg 47%
    21:00 +19°C° 0 mm 4 m/s 637 mmHg 53%
    22:00 +18°C° 0 mm 3 m/s 637 mmHg 58%
    23:00 +17°C° 0 mm 3 m/s 637 mmHg 63%

    29 Setembro, Sexta-feira

    Tempo Temperatura Precipitação Vento Pressão Humidade
    00:00 +17°C° 0 mm 3 m/s 637 mmHg 66%
    01:00 +16°C° 0 mm 3 m/s 637 mmHg 69%
    02:00 +16°C° 0 mm 3 m/s 636 mmHg 72%
    03:00 +14°C° 0 mm 3 m/s 636 mmHg 74%
    04:00 +15°C° 0 mm 2 m/s 636 mmHg 76%
    05:00 +14°C° 0 mm 2 m/s 636 mmHg 78%
    06:00 +15°C° 0 mm 2 m/s 636 mmHg 73%
    07:00 +16°C° 0 mm 2 m/s 637 mmHg 68%
    08:00 +16°C° 0 mm 2 m/s 637 mmHg 62%
    09:00 +18°C° 0 mm 2 m/s 637 mmHg 55%
    10:00 +19°C° 0 mm 3 m/s 638 mmHg 47%
    11:00 +20°C° 0 mm 3 m/s 638 mmHg 39%
    12:00 +21°C° 0 mm 3 m/s 638 mmHg 34%
    13:00 +22°C° 0 mm 3 m/s 637 mmHg 30%
    14:00 +24°C° 0 mm 3 m/s 637 mmHg 26%
    15:00 +22°C° 0 mm 4 m/s 637 mmHg 26%
    16:00 +22°C° 0 mm 4 m/s 637 mmHg 27%
    17:00 +21°C° 0 mm 5 m/s 637 mmHg 28%
    18:00 +20°C° 0 mm 5 m/s 637 mmHg 35%
    19:00 +19°C° 0 mm 5 m/s 637 mmHg 41%
    20:00 +17°C° 0 mm 5 m/s 637 mmHg 47%
    21:00 +17°C° 0 mm 4 m/s 637 mmHg 51%
    22:00 +15°C° 0 mm 4 m/s 637 mmHg 56%
    23:00 +16°C° 0 mm 3 m/s 637 mmHg 60%

    30 Setembro, Sábado

    Tempo Temperatura Precipitação Vento Pressão Humidade
    00:00 +14°C° 0 mm 3 m/s 636 mmHg 60%
    01:00 +14°C° 0 mm 3 m/s 636 mmHg 60%
    02:00 +14°C° 0 mm 3 m/s 636 mmHg 60%
    03:00 +14°C° 0 mm 2 m/s 636 mmHg 62%
    04:00 +14°C° 0 mm 2 m/s 636 mmHg 63%
    05:00 +13°C° 0 mm 2 m/s 636 mmHg 65%
    06:00 +14°C° 0 mm 2 m/s 637 mmHg 61%
    07:00 +15°C° 0 mm 2 m/s 637 mmHg 57%
    08:00 +16°C° 0 mm 2 m/s 638 mmHg 52%
    09:00 +17°C° 0 mm 2 m/s 638 mmHg 45%
    10:00 +19°C° 0 mm 2 m/s 638 mmHg 38%
    11:00 +21°C° 0 mm 1 m/s 638 mmHg 31%
    12:00 +21°C° 0 mm 2 m/s 638 mmHg 28%
    13:00 +23°C° 0 mm 2 m/s 638 mmHg 26%
    14:00 +24°C° 0 mm 3 m/s 638 mmHg 23%
    15:00 +22°C° 0 mm 3 m/s 638 mmHg 24%
    16:00 +22°C° 0 mm 3 m/s 638 mmHg 24%
    17:00 +22°C° 0 mm 3 m/s 638 mmHg 25%
    18:00 +21°C° 0 mm 3 m/s 638 mmHg 28%
    19:00 +20°C° 0 mm 3 m/s 638 mmHg 31%
    20:00 +19°C° 0 mm 3 m/s 638 mmHg 34%
    21:00 +18°C° 0 mm 3 m/s 638 mmHg 39%
    22:00 +17°C° 0 mm 3 m/s 638 mmHg 44%
    23:00 +16°C° 0 mm 2 m/s 638 mmHg 49%

    1 Outubro, Domingo

    Tempo Temperatura Precipitação Vento Pressão Humidade
    00:00 +16°C° 0 mm 2 m/s 637 mmHg 53%
    01:00 +15°C° 0 mm 2 m/s 637 mmHg 58%
    02:00 +15°C° 0 mm 2 m/s 637 mmHg 62%
    03:00 +15°C° 0 mm 1 m/s 637 mmHg 65%
    04:00 +14°C° 0 mm 1 m/s 637 mmHg 68%
    05:00 +14°C° 0 mm 1 m/s 637 mmHg 71%
    06:00 +15°C° 0 mm 1 m/s 638 mmHg 65%
    07:00 +16°C° 0 mm 1 m/s 639 mmHg 58%
    08:00 +18°C° 0 mm 1 m/s 639 mmHg 52%
    09:00 +19°C° 0 mm 2 m/s 639 mmHg 46%
    10:00 +20°C° 0 mm 2 m/s 639 mmHg 40%
    11:00 +23°C° 0 mm 2 m/s 640 mmHg 34%
    12:00 +23°C° 0 mm 2 m/s 639 mmHg 31%
    13:00 +24°C° 0 mm 2 m/s 639 mmHg 29%
    14:00 +25°C° 0 mm 2 m/s 639 mmHg 27%
    15:00 +25°C° 0 mm 3 m/s 639 mmHg 28%
    16:00 +23°C° 0 mm 4 m/s 639 mmHg 30%
    17:00 +23°C° 0 mm 4 m/s 639 mmHg 32%
    18:00 +21°C° 0 mm 4 m/s 638 mmHg 39%
    19:00 +20°C° 0 mm 5 m/s 638 mmHg 45%
    20:00 +17°C° 0 mm 5 m/s 638 mmHg 52%
    21:00 +18°C° 0 mm 4 m/s 638 mmHg 58%
    22:00 +17°C° 0 mm 4 m/s 638 mmHg 65%
    23:00 +16°C° 0 mm 3 m/s 638 mmHg 71%
    Mostrar mais